Reading, PA

2:44 PM EDT on October 23, 2019 (GMT -0400)
Reading Regional-Spaatz

Weather History for KRDG - August, 2019

Change the Weather History Date:

Thursday, August 8, 2019

  Actual Average Record
Temperature  
Mean Temperature 78 °F 74 °F  
Max Temperature 87 °F 84 °F 98 °F (1909)
Min Temperature 68 °F 63 °F 48 °F (1903)
Degree Days  
Heating Degree Days 0 0  
Month to date heating degree days 0 0  
Since 1 June heating degree days 16 25  
Since 1 July heating degree days 0 1  
Cooling Degree Days 13 9  
Month to date cooling degree days 106 72  
Year to date cooling degree days 844 624  
Since 1 June cooling degree days 739 564  
Growing Degree Days 28 (Base 50)    
Moisture  
Dew Point 69 °F    
Average Humidity 74    
Maximum Humidity 100    
Minimum Humidity 48    
Precipitation  
Precipitation 0.08 in 0.12 in 1.03 in (1959)
Month to date precipitation 0.86 0.94  
Year to date precipitation 39.15 26.26  
Sea Level Pressure  
Sea Level Pressure 29.76 in    
Wind  
Wind Speed 4 mph (SW)    
Max Wind Speed 22 mph    
Max Gust Speed 27 mph    
Visibility 8 miles    
Events      
T = Trace of Precipitation, MM = Missing Value Source: NWS Daily Summary

Daily Weather History Graph

Daily Weather History Graph

Search for Another Location

Airport or City:

Astronomy

Aug. 08, 2019 Rise Set
Actual Time 6:07 AM EDT 8:10 PM EDT
Civil Twilight 5:37 AM EDT 8:40 PM EDT
Nautical Twilight 5:01 AM EDT 9:16 PM EDT
Astronomical Twilight 4:21 AM EDT 9:56 PM EDT
Moon 2:44 PM EDT (8/8) 12:28 AM EDT (8/8)
Length of Visible Light 15h 02m
Length of Day
14h 02m
First Quarter, 60% of the Moon is Illuminated
Aug 8
First Quarter
Aug 15
Full
Aug 23
Last Quarter
Aug 30
New
Sep 5
First Quarter

Hourly Weather History & Observations

Time (EDT) Temp. Heat Index Dew Point Humidity Pressure Visibility Wind Dir Wind Speed Gust Speed Precip Events Conditions
12:09 AM 70.0 °F - 70.0 °F 100% 29.79 in 10.0 mi Calm Calm - N/A   Overcast
12:54 AM 70.0 °F - 70.0 °F 100% 29.80 in 10.0 mi Calm Calm - N/A   Mostly Cloudy
1:54 AM 70.0 °F - 70.0 °F 100% 29.78 in 10.0 mi Calm Calm - N/A   Overcast
2:03 AM 70.0 °F - 70.0 °F 100% 29.78 in 10.0 mi Calm Calm - N/A   Overcast
2:54 AM 70.0 °F - 70.0 °F 100% 29.78 in 10.0 mi South 3.5 mph - N/A   Overcast
3:09 AM 70.0 °F - 70.0 °F 100% 29.76 in 10.0 mi SSE 4.6 mph - N/A   Mostly Cloudy
3:43 AM 70.0 °F - 70.0 °F 100% 29.75 in 10.0 mi Calm Calm - N/A   Mostly Cloudy
3:54 AM 70.0 °F - 70.0 °F 100% 29.76 in 10.0 mi Calm Calm - N/A   Mostly Cloudy
4:03 AM 69.1 °F - 69.1 °F 100% 29.75 in 10.0 mi Calm Calm - N/A   Mostly Cloudy
4:54 AM 70.0 °F - 70.0 °F 100% 29.76 in 10.0 mi Calm Calm - N/A   Overcast
5:54 AM 70.0 °F - 70.0 °F 100% 29.76 in 3.0 mi SW 3.5 mph - N/A   Overcast
6:20 AM 69.1 °F - 69.1 °F 100% 29.75 in 3.0 mi Calm Calm - N/A   Scattered Clouds
6:38 AM 69.1 °F - 69.1 °F 100% 29.75 in 3.0 mi Calm Calm - N/A   Scattered Clouds
6:47 AM 69.1 °F - 69.1 °F 100% 29.76 in 3.0 mi Calm Calm - N/A   Mostly Cloudy
6:54 AM 70.0 °F - 70.0 °F 100% 29.77 in 3.0 mi Calm Calm - N/A   Mostly Cloudy
7:06 AM 70.0 °F - 70.0 °F 100% 29.76 in 1.0 mi North 3.5 mph - N/A   Overcast
7:54 AM 71.1 °F - 71.1 °F 100% 29.77 in 2.0 mi Calm Calm - N/A   Scattered Clouds
8:54 AM 75.0 °F - 71.1 °F 87% 29.77 in 2.0 mi NW 5.8 mph - N/A   Scattered Clouds
9:01 AM 75.9 °F - 71.1 °F 85% 29.76 in 2.0 mi Calm Calm - N/A   Scattered Clouds
9:54 AM 78.1 °F - 70.0 °F 76% 29.77 in 2.0 mi West 5.8 mph - N/A   Partly Cloudy
10:06 AM 79.0 °F - 71.1 °F 77% 29.77 in 7.0 mi West 8.1 mph - N/A   Mostly Cloudy
10:54 AM 79.0 °F - 70.0 °F 74% 29.78 in 7.0 mi West 8.1 mph - N/A   Mostly Cloudy
11:18 AM 80.1 °F 83.2 °F 70.0 °F 71% 29.76 in 10.0 mi West 8.1 mph - N/A   Partly Cloudy
11:54 AM 81.0 °F 84.4 °F 70.0 °F 69% 29.77 in 10.0 mi Variable 4.6 mph - N/A   Mostly Cloudy
12:54 PM 82.9 °F 87.0 °F 70.0 °F 65% 29.75 in 10.0 mi WSW 8.1 mph - N/A   Scattered Clouds
1:54 PM 84.9 °F 89.4 °F 70.0 °F 61% 29.74 in 10.0 mi West 6.9 mph - N/A   Scattered Clouds
2:54 PM 81.0 °F 83.0 °F 66.0 °F 60% 29.73 in 10.0 mi SSW 10.4 mph - N/A   Scattered Clouds
3:54 PM 86.0 °F 90.7 °F 70.0 °F 59% 29.72 in 10.0 mi WSW 6.9 mph - N/A   Partly Cloudy
4:54 PM 86.0 °F 87.6 °F 64.9 °F 49% 29.70 in 10.0 mi SW 10.4 mph 19.6 mph N/A   Partly Cloudy
5:54 PM 84.0 °F 85.8 °F 64.9 °F 53% 29.70 in 10.0 mi Variable 4.6 mph - N/A   Mostly Cloudy
6:54 PM 75.0 °F - 73.9 °F 96% 29.72 in 10.0 mi Calm Calm - 0.08 in   Clear
7:54 PM 79.0 °F - 66.0 °F 64% 29.73 in 10.0 mi SW 3.5 mph - N/A   Clear
8:54 PM 73.9 °F - 69.1 °F 85% 29.75 in 10.0 mi SSW 5.8 mph - N/A   Clear
9:54 PM 73.9 °F - 66.9 °F 79% 29.75 in 10.0 mi South 3.5 mph - N/A   Clear
10:54 PM 71.1 °F - 69.1 °F 93% 29.75 in 10.0 mi Calm Calm - N/A   Clear
11:54 PM 70.0 °F - 68.0 °F 93% 29.75 in 10.0 mi Calm Calm - N/A   Clear